Project,Study,Ord_Occ,Event_Num,Cast_ID,Date_Time_UTC,Date_Time_PST,Lat_Dec,Lon_Dec,Sta_ID,Line,Sta,Depth,Pressure,PrQ,Temp1,Temp1Q,Temp2,Temp2Q,TempAve,Salt1,Salt1Q,Salt1_Corr,Salt2,Salt2Q,Salt2_Corr,SaltAve_Corr,Ox1,Ox1Q,Ox1_CruiseCorr,Ox1_StaCorr,Ox2,Ox2Q,Ox2_CruiseCorr,Ox2_StaCorr,OxAve_StaCorr,Ox1uM,Ox1uM_CruiseCorr,Ox1uM_StaCorr,Ox2uM,Ox2uM_CruiseCorr,Ox2uM_StaCorr,OxAveuM_StaCorr,FluorV,FluorQ,EstChl_CruiseCorr,EstChl_StaCorr,ISUSV,ISUSQ,EstNO3_CruiseCorr,EstNO3_StaCorr,SigThetaTS1,SigThetaTS1Q,SigThetaTS2,SigThetaTS2Q,BAT,XMiss,TransQ,pH,pHQ,SPAR,SPARQ,PAR,PARQ,PoT1,PoT2,DynHt,SVA,OxSat1,OxSat2,BTL_Depth,BTL_Temp,SaltB,OxB,OxBuM,Chl-a,Phaeo,NO3,NO2,NH4,PO4,SIL
CalCOFI,2105SH,034,,2105_034d,11-May-2021 23:19:41,11-May-2021 15:19:41,33.14976,-123.22100,080.0 090.0,080.0,090.0,3.000,3.021,,14.2113,,14.2132,,14.2123,33.1322,,33.1334,33.1321,,33.1340,33.1337,5.7385,,6.0674,5.8993,5.8102,,6.0776,5.8904,5.8949,250.104,263.9575,259.0900,253.227,275.2415,259.1217,259.1059,0.1006,,0.5195,0.2889,2.6091,,0.0000,,24.7001,,24.6996,,,,,,,,,,,14.2109,14.2128,0.0019,323.408,98.090,99.319,3,14.201,33.1522,6.073,264.68,0.538,0.128,0.18,0.042,0.00,0.35,1.34
CalCOFI,2105SH,034,,2105_034d,11-May-2021 23:19:53,11-May-2021 15:19:53,33.14976,-123.22100,080.0 090.0,080.0,090.0,4.000,4.029,,14.2142,,14.2145,,14.2144,33.1327,,33.1339,33.1324,,33.1343,33.1341,5.7367,,6.0655,5.8974,5.8077,,6.0750,5.8879,5.8927,250.024,263.8739,259.0074,253.120,275.1551,259.0122,259.0098,0.1008,,0.5209,0.2897,2.6099,,0.0000,,24.6999,,24.6996,,,,,,,,,,,14.2136,14.2139,0.0097,323.456,98.064,99.279,,,,,,,,,,,,
CalCOFI,2105SH,034,,2105_034d,11-May-2021 23:19:55,11-May-2021 15:19:55,33.14976,-123.22100,080.0 090.0,080.0,090.0,5.000,5.036,,14.2128,,14.2132,,14.2130,33.1326,,33.1338,33.1322,,33.1341,33.1340,5.7359,,6.0647,5.8966,5.8102,,6.0776,5.8904,5.8935,249.993,263.8415,258.9753,253.231,275.1216,259.1258,259.0506,0.1091,,0.5803,0.3218,2.6098,,0.0000,,24.7002,,24.6998,,,,,,,,,,,14.2121,14.2124,0.0130,323.461,98.049,99.320,,,,,,,,,,,,
CalCOFI,2105SH,034,,2105_034d,11-May-2021 23:19:59,11-May-2021 15:19:59,33.14976,-123.22100,080.0 090.0,080.0,090.0,6.000,6.043,,14.2117,,14.2124,,14.2121,33.1327,,33.1339,33.1323,,33.1342,33.1341,5.7326,,6.0613,5.8933,5.8113,,6.0787,5.8915,5.8924,249.846,263.6878,258.8235,253.278,274.9629,259.1739,258.9987,0.1150,,0.6223,0.3447,2.6095,,0.0000,,24.7005,,24.7001,,,,,,,,,,,14.2109,14.2115,0.0165,323.459,97.990,99.337,,,,,,,,,,,,
CalCOFI,2105SH,034,,2105_034d,11-May-2021 23:20:00,11-May-2021 15:20:00,33.14976,-123.22100,080.0 090.0,080.0,090.0,7.000,7.050,,14.2032,,14.2028,,14.2030,33.1325,,33.1337,33.1314,,33.1333,33.1335,5.7187,,6.0467,5.8792,5.8099,,6.0773,5.8901,5.8847,249.238,263.0522,258.1955,253.214,274.3062,259.1084,258.6520,0.1243,,0.6881,0.3807,2.6093,,0.0000,,24.7021,,24.7014,,,,,,,,,,,14.2022,14.2018,0.0197,323.332,97.735,99.292,,,,,,,,,,,,
CalCOFI,2105SH,034,,2105_034d,11-May-2021 23:20:01,11-May-2021 15:20:01,33.14976,-123.22100,080.0 090.0,080.0,090.0,8.000,8.057,,14.1990,,14.1927,,14.1959,33.1320,,33.1332,33.1305,,33.1324,33.1328,5.7279,,6.0563,5.8885,5.8093,,6.0767,5.8895,5.8890,249.642,263.4745,258.6128,253.188,274.7426,259.0818,258.8473,0.1354,,0.7662,0.4236,2.6091,,0.0000,,24.7027,,24.7028,,,,,,,,,,,14.1979,14.1915,0.0230,323.309,97.885,99.261,,,,,,,,,,,,
CalCOFI,2105SH,034,,2105_034d,11-May-2021 23:20:03,11-May-2021 15:20:03,33.14976,-123.22100,080.0 090.0,080.0,090.0,9.000,9.064,,14.1823,,14.1863,,14.1843,33.1304,,33.1316,33.1299,,33.1318,33.1317,5.7478,,6.0771,5.9087,5.8122,,6.0797,5.8924,5.9006,250.510,264.3820,259.5094,253.314,275.6800,259.2108,259.3601,0.1411,,0.8060,0.4457,2.6087,,0.0000,,24.7050,,24.7037,,,,,,,,,,,14.1811,14.1850,0.0262,323.119,98.191,99.298,,,,,,,,,,,,
CalCOFI,2105SH,034,,2105_034d,11-May-2021 23:20:06,11-May-2021 15:20:06,33.14976,-123.22099,080.0 090.0,080.0,090.0,10.000,10.071,,14.1753,,14.1770,,14.1762,33.1294,,33.1306,33.1287,,33.1306,33.1306,5.7406,,6.0696,5.9014,5.8154,,6.0830,5.8956,5.8985,250.194,264.0516,259.1830,253.456,275.3387,259.3561,259.2696,0.1413,,0.8074,0.4465,2.6083,,0.0000,,24.7057,,24.7048,,,,,,,,,,,14.1739,14.1756,0.0295,323.078,98.053,99.334,,,,,,,,,,,,
CalCOFI,2105SH,034,,2105_034d,11-May-2021 23:20:07,11-May-2021 15:20:07,33.14976,-123.22098,080.0 090.0,080.0,090.0,11.000,11.079,,14.1648,,14.1662,,14.1655,33.1281,,33.1293,33.1272,,33.1291,33.1292,5.7650,,6.0951,5.9261,5.8156,,6.0832,5.8959,5.9110,251.258,265.1639,260.2820,253.465,276.4878,259.3653,259.8237,0.1442,,0.8276,0.4577,2.6082,,0.0000,,24.7069,,24.7059,,,,,,,,,,,14.1632,14.1647,0.0327,322.993,98.448,99.315,11,13.976,,,265.64,0.514,0.172,0.15,0.048,0.00,0.35,1.14
CalCOFI,2105SH,034,,2105_034d,11-May-2021 23:20:08,11-May-2021 15:20:08,33.14976,-123.22099,080.0 090.0,080.0,090.0,12.000,12.086,,14.1540,,14.1521,,14.1531,33.1267,,33.1279,33.1249,,33.1268,33.1274,5.7722,,6.1027,5.9334,5.8139,,6.0814,5.8941,5.9138,251.569,265.4890,260.6032,253.388,276.8237,259.2865,259.9449,0.1513,,0.8769,0.4852,2.6080,,0.0000,,24.7081,,24.7071,,,,,,,,,,,14.1523,14.1504,0.0360,322.910,98.548,99.255,,,,,,,,,,,,
CalCOFI,2105SH,034,,2105_034d,11-May-2021 23:20:09,11-May-2021 15:20:09,33.14976,-123.22098,080.0 090.0,080.0,090.0,13.000,13.093,,14.1281,,14.1254,,14.1268,33.1223,,33.1235,33.1193,,33.1212,33.1224,5.7324,,6.0610,5.8931,5.8205,,6.0883,5.9008,5.8970,249.836,263.6774,258.8132,253.674,274.9521,259.5792,259.1962,0.1508,,0.8735,0.4832,2.6076,,0.0000,,24.7101,,24.7084,,,,,,,,,,,14.1263,14.1235,0.0392,322.743,97.815,99.310,,,,,,,,,,,,
CalCOFI,2105SH,034,,2105_034d,11-May-2021 23:20:11,11-May-2021 15:20:11,33.14976,-123.22098,080.0 090.0,080.0,090.0,14.000,14.100,,14.0663,,14.0667,,14.0665,33.1107,,33.1119,33.1079,,33.1098,33.1109,5.7466,,6.0759,5.9075,5.8262,,6.0942,5.9065,5.9070,250.455,264.3245,259.4525,253.922,275.6206,259.8329,259.6427,0.1544,,0.8984,0.4972,2.6070,,0.0000,,24.7141,,24.7118,,,,,,,,,,,14.0643,14.0647,0.0425,322.393,97.928,99.282,,,,,,,,,,,,
CalCOFI,2105SH,034,,2105_034d,11-May-2021 23:20:13,11-May-2021 15:20:13,33.14976,-123.22098,080.0 090.0,080.0,090.0,15.000,15.107,,14.0549,,14.0593,,14.0571,33.1076,,33.1088,33.1076,,33.1095,33.1092,5.7586,,6.0884,5.9196,5.8241,,6.0920,5.9044,5.9120,250.974,264.8670,259.9886,253.832,276.1811,259.7408,259.8647,0.1527,,0.8866,0.4906,2.6064,,0.0000,,24.7140,,24.7132,,,,,,,,,,,14.0527,14.0571,0.0457,322.425,98.106,99.232,,,,,,,,,,,,
CalCOFI,2105SH,034,,2105_034d,11-May-2021 23:20:15,11-May-2021 15:20:15,33.14976,-123.22098,080.0 090.0,080.0,090.0,16.000,16.114,,14.0196,,14.0158,,14.0177,33.1008,,33.1020,33.0973,,33.0992,33.1006,5.7425,,6.0716,5.9033,5.8133,,6.0808,5.8935,5.8984,250.276,264.1373,259.2677,253.361,275.4273,259.2589,259.2633,0.1533,,0.8908,0.4929,2.6056,,0.0000,,24.7161,,24.7142,,,,,,,,,,,14.0174,14.0135,0.0490,322.253,97.759,98.954,,,,,,,,,,,,
CalCOFI,2105SH,034,,2105_034d,11-May-2021 23:20:17,11-May-2021 15:20:17,33.14976,-123.22098,080.0 090.0,080.0,090.0,17.000,17.122,,13.9777,,13.9519,,13.9648,33.0918,,33.0930,33.0835,,33.0854,33.0892,5.7509,,6.0804,5.9118,5.8373,,6.1057,5.9176,5.9147,250.641,264.5189,259.6447,254.404,275.8215,260.3262,259.9855,0.1552,,0.9039,0.5003,2.6049,,0.0000,,24.7179,,24.7168,,,,,,,,,,,13.9753,13.9495,0.0523,322.111,97.813,99.225,,,,,,,,,,,,
CalCOFI,2105SH,034,,2105_034d,11-May-2021 23:20:18,11-May-2021 15:20:18,33.14976,-123.22098,080.0 090.0,080.0,090.0,18.000,18.129,,13.7915,,13.7724,,13.7820,33.0524,,33.0536,33.0370,,33.0389,33.0463,5.7794,,6.1102,5.9407,5.8624,,6.1317,5.9427,5.9417,251.880,265.8142,260.9245,255.499,277.1596,261.4467,261.1856,0.1499,,0.8672,0.4797,2.6044,,0.0000,,24.7257,,24.7178,,,,,,,,,,,13.7890,13.7699,0.0555,321.389,97.902,99.260,,,,,,,,,,,,
CalCOFI,2105SH,034,,2105_034d,11-May-2021 23:20:19,11-May-2021 15:20:19,33.14974,-123.22098,080.0 090.0,080.0,090.0,19.000,19.136,,13.6512,,13.6461,,13.6487,33.0247,,33.0259,33.0172,,33.0191,33.0225,5.8137,,6.1461,5.9754,5.8741,,6.1438,5.9544,5.9649,253.373,267.3749,262.4666,256.007,278.7720,261.9666,262.2166,0.1434,,0.8220,0.4546,2.6039,,0.0000,,24.7330,,24.7283,,,,,,,,,,,13.6486,13.6435,0.0587,320.714,98.184,99.190,,,,,,,,,,,,
CalCOFI,2105SH,034,,2105_034d,11-May-2021 23:20:22,11-May-2021 15:20:22,33.14974,-123.22098,080.0 090.0,080.0,090.0,20.000,20.143,,13.6023,,13.6111,,13.6067,33.0137,,33.0149,33.0123,,33.0142,33.0146,5.7992,,6.1309,5.9607,5.8738,,6.1435,5.9541,5.9574,252.740,266.7132,261.8128,255.991,278.0884,261.9502,261.8815,0.1471,,0.8478,0.4689,2.6029,,0.0000,,24.7345,,24.7317,,,,,,,,,,,13.5996,13.6083,0.0619,320.603,97.835,99.110,,,,,,,,,,,,
CalCOFI,2105SH,034,,2105_034d,11-May-2021 23:20:25,11-May-2021 15:20:25,33.14974,-123.22098,080.0 090.0,080.0,090.0,21.000,21.150,,13.5748,,13.5841,,13.5795,33.0081,,33.0093,33.0052,,33.0071,33.0082,5.8105,,6.1427,5.9722,5.8747,,6.1444,5.9550,5.9636,253.233,267.2286,262.3220,256.033,278.6208,261.9932,262.1576,0.1435,,0.8227,0.4550,2.6014,,0.0000,,24.7358,,24.7317,,,,,,,,,,,13.5719,13.5812,0.0652,320.503,97.967,99.067,,,,,,,,,,,,
CalCOFI,2105SH,034,,2105_034d,11-May-2021 23:20:26,11-May-2021 15:20:26,33.14974,-123.22098,080.0 090.0,080.0,090.0,22.000,22.158,,13.5628,,13.5610,,13.5619,33.0054,,33.0066,33.0029,,33.0048,33.0057,5.7810,,6.1119,5.9423,5.8773,,6.1471,5.9576,5.9500,251.946,265.8831,260.9926,256.145,277.2309,262.1078,261.5502,0.1451,,0.8339,0.4612,2.6007,,0.0000,,24.7362,,24.7346,,,,,,,,,,,13.5598,13.5579,0.0684,320.496,97.444,99.062,,,,,,,,,,,,
CalCOFI,2105SH,034,,2105_034d,11-May-2021 23:20:28,11-May-2021 15:20:28,33.14974,-123.22098,080.0 090.0,080.0,090.0,23.000,23.165,,13.5454,,13.5486,,13.5470,33.0018,,33.0030,33.0004,,33.0023,33.0027,5.7948,,6.1263,5.9563,5.8727,,6.1423,5.9530,5.9547,252.550,266.5146,261.6165,255.943,277.8832,261.9011,261.7588,0.1445,,0.8297,0.4588,2.6000,,0.0000,,24.7369,,24.7352,,,,,,,,,,,13.5422,13.5454,0.0716,320.449,97.641,98.958,,,,,,,,,,,,
CalCOFI,2105SH,034,,2105_034d,11-May-2021 23:20:29,11-May-2021 15:20:29,33.14974,-123.22098,080.0 090.0,080.0,090.0,24.000,24.172,,13.5378,,13.5376,,13.5377,33.0007,,33.0019,32.9988,,33.0007,33.0013,5.7896,,6.1209,5.9510,5.8723,,6.1419,5.9526,5.9518,252.320,266.2741,261.3790,255.925,277.6348,261.8827,261.6309,0.1444,,0.8290,0.4585,2.5991,,0.0000,,24.7376,,24.7362,,,,,,,,,,,13.5344,13.5343,0.0749,320.409,97.536,98.928,,,,,,,,,,,,
CalCOFI,2105SH,034,,2105_034d,11-May-2021 23:20:31,11-May-2021 15:20:31,33.14973,-123.22098,080.0 090.0,080.0,090.0,25.000,25.179,,13.5594,,13.5598,,13.5596,33.0079,,33.0091,33.0066,,33.0085,33.0088,5.8007,,6.1325,5.9623,5.8654,,6.1348,5.9457,5.9540,252.805,266.7811,261.8799,255.626,278.1586,261.5767,261.7283,0.1476,,0.8513,0.4708,2.5979,,0.0000,,24.7388,,24.7377,,,,,,,,,,,13.5559,13.5563,0.0781,320.324,97.771,98.862,,,,,,,,,,,,
CalCOFI,2105SH,034,,2105_034d,11-May-2021 23:20:33,11-May-2021 15:20:33,33.14972,-123.22098,080.0 090.0,080.0,090.0,26.000,26.187,,13.5708,,13.5672,,13.5690,33.0114,,33.0126,33.0090,,33.0109,33.0118,5.7932,,6.1246,5.9547,5.8588,,6.1279,5.9391,5.9469,252.480,266.4414,261.5442,255.335,277.8076,261.2789,261.4116,0.1487,,0.8589,0.4751,2.5962,,0.0000,,24.7393,,24.7382,,,,,,,,,,,13.5671,13.5636,0.0813,320.308,97.670,98.766,,,,,,,,,,,,
CalCOFI,2105SH,034,,2105_034d,11-May-2021 23:20:35,11-May-2021 15:20:35,33.14972,-123.22098,080.0 090.0,080.0,090.0,27.000,27.194,,13.5746,,13.5752,,13.5749,33.0126,,33.0138,33.0121,,33.0140,33.0139,5.8070,,6.1391,5.9686,5.8491,,6.1179,5.9294,5.9490,253.081,267.0697,262.1650,254.916,278.4567,260.8501,261.5076,0.1518,,0.8804,0.4871,2.5946,,0.0000,,24.7395,,24.7389,,,,,,,,,,,13.5709,13.5715,0.0845,320.317,97.911,98.622,,,,,,,,,,,,
CalCOFI,2105SH,034,,2105_034d,11-May-2021 23:20:37,11-May-2021 15:20:37,33.14972,-123.22098,080.0 090.0,080.0,090.0,28.000,28.201,,13.5888,,13.5895,,13.5892,33.0173,,33.0185,33.0171,,33.0190,33.0188,5.7606,,6.0905,5.9216,5.8464,,6.1151,5.9267,5.9242,251.056,264.9527,260.0733,254.797,276.2697,260.7283,260.4008,0.1523,,0.8839,0.4890,2.5928,,0.0000,,24.7402,,24.7399,,,,,,,,,,,13.5849,13.5856,0.0878,320.275,97.159,98.608,,,,,,,,,,,,
CalCOFI,2105SH,034,,2105_034d,11-May-2021 23:20:39,11-May-2021 15:20:39,33.14972,-123.22098,080.0 090.0,080.0,090.0,29.000,29.208,,13.5975,,13.5987,,13.5981,33.0208,,33.0220,33.0205,,33.0224,33.0222,5.7709,,6.1013,5.9321,5.8337,,6.1019,5.9140,5.9231,251.507,265.4242,260.5392,254.244,276.7568,260.1624,260.3508,0.1523,,0.8839,0.4890,2.5914,,0.0000,,24.7412,,24.7408,,,,,,,,,,,13.5934,13.5947,0.0910,320.209,97.353,98.415,,,,,,,,,,,,
CalCOFI,2105SH,034,,2105_034d,11-May-2021 23:20:41,11-May-2021 15:20:41,33.14972,-123.22098,080.0 090.0,080.0,090.0,30.000,30.216,,13.5997,,13.5967,,13.5982,33.0237,,33.0249,33.0221,,33.0240,33.0245,5.7656,,6.0958,5.9267,5.8414,,6.1099,5.9217,5.9242,251.272,265.1785,260.2964,254.579,276.5030,260.5052,260.4008,0.1473,,0.8492,0.4697,2.5901,,0.0000,,24.7430,,24.7424,,,,,,,,,,,13.5955,13.5926,0.0942,320.063,97.268,98.542,30,13.413,,,267.50,0.461,0.172,0.51,0.069,0.00,0.39,1.11
CalCOFI,2105SH,034,,2105_034d,11-May-2021 23:20:43,11-May-2021 15:20:43,33.14972,-123.22098,080.0 090.0,080.0,090.0,31.000,31.223,,13.5956,,13.5936,,13.5946,33.0234,,33.0246,33.0219,,33.0238,33.0242,5.7777,,6.1084,5.9390,5.8420,,6.1105,5.9223,5.9307,251.802,265.7326,260.8439,254.604,277.0754,260.5309,260.6874,0.1470,,0.8471,0.4685,2.5883,,0.0000,,24.7436,,24.7430,,,,,,,,,,,13.5913,13.5892,0.0974,320.034,97.465,98.545,,,,,,,,,,,,
CalCOFI,2105SH,034,,2105_034d,11-May-2021 23:20:45,11-May-2021 15:20:45,33.14973,-123.22098,080.0 090.0,080.0,090.0,32.000,32.230,,13.5908,,13.5919,,13.5914,33.0226,,33.0238,33.0224,,33.0243,33.0241,5.7771,,6.1078,5.9384,5.8464,,6.1151,5.9267,5.9326,251.775,265.7044,260.8160,254.797,277.0462,260.7283,260.7722,0.1472,,0.8485,0.4693,2.5872,,0.0000,,24.7441,,24.7437,,,,,,,,,,,13.5863,13.5874,0.1006,320.017,97.445,98.616,,,,,,,,,,,,
CalCOFI,2105SH,034,,2105_034d,11-May-2021 23:20:46,11-May-2021 15:20:46,33.14972,-123.22100,080.0 090.0,080.0,090.0,33.000,33.237,,13.5911,,13.5906,,13.5909,33.0228,,33.0240,33.0222,,33.0241,33.0241,5.7718,,6.1022,5.9330,5.8449,,6.1135,5.9252,5.9291,251.545,265.4639,260.5784,254.730,276.7978,260.6598,260.6191,0.1505,,0.8714,0.4821,2.5866,,0.0000,,24.7442,,24.7438,,,,,,,,,,,13.5865,13.5860,0.1039,320.037,97.357,98.588,,,,,,,,,,,,
CalCOFI,2105SH,034,,2105_034d,11-May-2021 23:20:48,11-May-2021 15:20:48,33.14972,-123.22100,080.0 090.0,080.0,090.0,34.000,34.245,,13.5826,,13.5838,,13.5832,33.0206,,33.0218,33.0201,,33.0220,33.0219,5.7625,,6.0925,5.9236,5.8422,,6.1108,5.9225,5.9231,251.139,265.0395,260.1591,254.611,276.3593,260.5380,260.3486,0.1532,,0.8901,0.4925,2.5860,,0.0000,,24.7442,,24.7436,,,,,,,,,,,13.5779,13.5791,0.1071,320.058,97.181,98.527,,,,,,,,,,,,
CalCOFI,2105SH,034,,2105_034d,11-May-2021 23:20:51,11-May-2021 15:20:51,33.14972,-123.22100,080.0 090.0,080.0,090.0,35.000,35.252,,13.5830,,13.5830,,13.5830,33.0207,,33.0219,33.0199,,33.0218,33.0219,5.7678,,6.0981,5.9289,5.8420,,6.1105,5.9223,5.9256,251.370,265.2810,260.3977,254.604,276.6088,260.5309,260.4643,0.1477,,0.8520,0.4712,2.5852,,0.0000,,24.7442,,24.7437,,,,,,,,,,,13.5781,13.5781,0.1103,320.087,97.271,98.522,,,,,,,,,,,,
CalCOFI,2105SH,034,,2105_034d,11-May-2021 23:20:53,11-May-2021 15:20:53,33.14972,-123.22100,080.0 090.0,080.0,090.0,36.000,36.259,,13.5782,,13.5788,,13.5785,33.0200,,33.0212,33.0193,,33.0212,33.0212,5.7407,,6.0697,5.9015,5.8423,,6.1109,5.9226,5.9121,250.189,264.0464,259.1778,254.617,275.3333,260.5442,259.8610,0.1463,,0.8422,0.4658,2.5847,,0.0000,,24.7447,,24.7440,,,,,,,,,,,13.5732,13.5738,0.1135,320.066,96.805,98.518,,,,,,,,,,,,
CalCOFI,2105SH,034,,2105_034d,11-May-2021 23:20:54,11-May-2021 15:20:54,33.14972,-123.22101,080.0 090.0,080.0,090.0,37.000,37.267,,13.5774,,13.5779,,13.5777,33.0198,,33.0210,33.0193,,33.0212,33.0211,5.7493,,6.0787,5.9102,5.8417,,6.1102,5.9220,5.9161,250.566,264.4405,259.5672,254.593,275.7405,260.5196,260.0434,0.1494,,0.8638,0.4778,2.5846,,0.0000,,24.7448,,24.7443,,,,,,,,,,,13.5723,13.5728,0.1168,320.089,96.949,98.507,,,,,,,,,,,,
CalCOFI,2105SH,034,,2105_034d,11-May-2021 23:20:55,11-May-2021 15:20:55,33.14972,-123.22102,080.0 090.0,080.0,090.0,38.000,38.274,,13.5788,,13.5788,,13.5788,33.0203,,33.0215,33.0197,,33.0216,33.0216,5.7729,,6.1034,5.9341,5.8409,,6.1094,5.9212,5.9277,251.593,265.5141,260.6280,254.554,276.8496,260.4797,260.5539,0.1582,,0.9246,0.5119,2.5844,,0.0000,,24.7448,,24.7444,,,,,,,,,,,13.5736,13.5736,0.1200,320.109,97.349,98.495,,,,,,,,,,,,
CalCOFI,2105SH,034,,2105_034d,11-May-2021 23:20:58,11-May-2021 15:20:58,33.14972,-123.22102,080.0 090.0,080.0,090.0,39.000,39.281,,13.5793,,13.5799,,13.5796,33.0205,,33.0217,33.0200,,33.0219,33.0218,5.7644,,6.0945,5.9255,5.8427,,6.1113,5.9230,5.9243,251.220,265.1242,260.2427,254.635,276.4468,260.5626,260.4027,0.1525,,0.8852,0.4898,2.5839,,0.0000,,24.7450,,24.7444,,,,,,,,,,,13.5739,13.5745,0.1234,320.124,97.206,98.528,,,,,,,,,,,,
CalCOFI,2105SH,034,,2105_034d,11-May-2021 23:21:02,11-May-2021 15:21:02,33.14972,-123.22102,080.0 090.0,080.0,090.0,40.000,40.288,,13.5819,,13.5826,,13.5823,33.0213,,33.0225,33.0211,,33.0230,33.0228,5.7571,,6.0869,5.9181,5.8336,,6.1018,5.9139,5.9160,250.904,264.7938,259.9164,254.239,276.1055,260.1573,260.0369,0.1560,,0.9094,0.5034,2.5831,,0.0000,,24.7451,,24.7448,,,,,,,,,,,13.5764,13.5770,0.1271,320.142,97.089,98.381,,,,,,,,,,,,
CalCOFI,2105SH,034,,2105_034d,11-May-2021 23:21:03,11-May-2021 15:21:03,33.14972,-123.22102,080.0 090.0,080.0,090.0,41.000,41.296,,13.5756,,13.5734,,13.5745,33.0197,,33.0209,33.0185,,33.0204,33.0207,5.7675,,6.0978,5.9286,5.8401,,6.1086,5.9204,5.9245,251.356,265.2664,260.3832,254.520,276.5937,260.4449,260.4141,0.1543,,0.8977,0.4968,2.5830,,0.0000,,24.7452,,24.7447,,,,,,,,,,,13.5699,13.5677,0.1303,320.159,97.251,98.470,,,,,,,,,,,,
CalCOFI,2105SH,034,,2105_034d,11-May-2021 23:21:04,11-May-2021 15:21:04,33.14972,-123.22102,080.0 090.0,080.0,090.0,42.000,42.303,,13.5387,,13.5370,,13.5379,33.0130,,33.0142,33.0106,,33.0125,33.0134,5.7666,,6.0968,5.9277,5.8470,,6.1157,5.9273,5.9275,251.317,265.2256,260.3429,254.820,276.5516,260.7519,260.5474,0.1506,,0.8721,0.4824,2.5828,,0.0000,,24.7474,,24.7460,,,,,,,,,,,13.5328,13.5312,0.1335,319.969,97.158,98.508,,,,,,,,,,,,
CalCOFI,2105SH,034,,2105_034d,11-May-2021 23:21:05,11-May-2021 15:21:05,33.14972,-123.22102,080.0 090.0,080.0,090.0,43.000,43.310,,13.4912,,13.4898,,13.4905,33.0055,,33.0067,33.0038,,33.0057,33.0062,5.7820,,6.1129,5.9433,5.8618,,6.1311,5.9421,5.9427,251.987,265.9260,261.0350,255.464,277.2752,261.4109,261.2230,0.1450,,0.8332,0.4608,2.5827,,0.0000,,24.7513,,24.7503,,,,,,,,,,,13.4852,13.4839,0.1368,319.626,97.319,98.657,,,,,,,,,,,,
CalCOFI,2105SH,034,,2105_034d,11-May-2021 23:21:07,11-May-2021 15:21:07,33.14972,-123.22102,080.0 090.0,080.0,090.0,44.000,44.318,,13.4776,,13.4797,,13.4787,33.0035,,33.0047,33.0024,,33.0043,33.0045,5.7842,,6.1152,5.9456,5.8586,,6.1277,5.9389,5.9423,252.083,266.0264,261.1342,255.327,277.3788,261.2707,261.2025,0.1505,,0.8714,0.4821,2.5827,,0.0000,,24.7525,,24.7512,,,,,,,,,,,13.4715,13.4736,0.1400,319.535,97.327,98.583,,,,,,,,,,,,
CalCOFI,2105SH,034,,2105_034d,11-May-2021 23:21:09,11-May-2021 15:21:09,33.14972,-123.22102,080.0 090.0,080.0,090.0,45.000,45.325,,13.4673,,13.4717,,13.4695,33.0027,,33.0039,33.0025,,33.0044,33.0042,5.7800,,6.1108,5.9413,5.8629,,6.1322,5.9432,5.9423,251.901,265.8361,260.9462,255.512,277.1823,261.4600,261.2031,0.1448,,0.8318,0.4600,2.5828,,0.0000,,24.7540,,24.7530,,,,,,,,,,,13.4611,13.4655,0.1432,319.420,97.236,98.639,,,,,,,,,,,,
CalCOFI,2105SH,034,,2105_034d,11-May-2021 23:21:12,11-May-2021 15:21:12,33.14972,-123.22102,080.0 090.0,080.0,090.0,46.000,46.332,,13.4831,,13.4849,,13.4840,33.0102,,33.0114,33.0100,,33.0119,33.0117,5.7619,,6.0919,5.9230,5.8681,,6.1376,5.9484,5.9357,251.109,265.0081,260.1281,255.738,276.3269,261.6913,260.9097,0.1418,,0.8109,0.4484,2.5832,,0.0000,,24.7567,,24.7561,,,,,,,,,,,13.4767,13.4786,0.1464,319.194,96.967,98.758,,,,,,,,,,,,
CalCOFI,2105SH,034,,2105_034d,11-May-2021 23:21:14,11-May-2021 15:21:14,33.14972,-123.22102,080.0 090.0,080.0,090.0,47.000,47.340,,13.4951,,13.4942,,13.4947,33.0143,,33.0155,33.0147,,33.0166,33.0161,5.7783,,6.1090,5.9396,5.8685,,6.1380,5.9488,5.9442,251.825,265.7567,260.8677,255.755,277.1002,261.7087,261.2882,0.1463,,0.8422,0.4658,2.5836,,0.0000,,24.7574,,24.7579,,,,,,,,,,,13.4886,13.4877,0.1496,319.155,97.270,98.786,,,,,,,,,,,,
CalCOFI,2105SH,034,,2105_034d,11-May-2021 23:21:16,11-May-2021 15:21:16,33.14971,-123.22102,080.0 090.0,080.0,090.0,48.000,48.347,,13.4948,,13.4968,,13.4958,33.0153,,33.0165,33.0155,,33.0174,33.0170,5.7711,,6.1015,5.9323,5.8560,,6.1250,5.9363,5.9343,251.511,265.4284,260.5433,255.211,276.7611,261.1520,260.8477,0.1484,,0.8568,0.4739,2.5838,,0.0000,,24.7583,,24.7580,,,,,,,,,,,13.4882,13.4901,0.1528,319.097,97.148,98.582,,,,,,,,,,,,
CalCOFI,2105SH,034,,2105_034d,11-May-2021 23:21:17,11-May-2021 15:21:17,33.14970,-123.22102,080.0 090.0,080.0,090.0,49.000,49.354,,13.5105,,13.5113,,13.5109,33.0210,,33.0222,33.0222,,33.0241,33.0232,5.7741,,6.1047,5.9353,5.8595,,6.1287,5.9398,5.9376,251.642,265.5653,260.6786,255.364,276.9026,261.3086,260.9936,0.1593,,0.9322,0.5161,2.5840,,0.0000,,24.7595,,24.7603,,,,,,,,,,,13.5037,13.5045,0.1561,319.009,97.234,98.674,,,,,,,,,,,,
CalCOFI,2105SH,034,,2105_034d,11-May-2021 23:21:18,11-May-2021 15:21:18,33.14970,-123.22102,080.0 090.0,080.0,090.0,50.000,50.362,,13.5292,,13.5299,,13.5296,33.0272,,33.0284,33.0273,,33.0292,33.0288,5.7731,,6.1036,5.9343,5.8639,,6.1332,5.9442,5.9393,251.598,265.5193,260.6332,255.553,276.8550,261.5020,261.0676,0.1545,,0.8991,0.4975,2.5842,,0.0000,,24.7606,,24.7605,,,,,,,,,,,13.5223,13.5229,0.1593,318.939,97.258,98.788,,,,,,,,,,,,
CalCOFI,2105SH,034,,2105_034d,11-May-2021 23:21:21,11-May-2021 15:21:21,33.14970,-123.22104,080.0 090.0,080.0,090.0,51.000,51.369,,13.5369,,13.5373,,13.5371,33.0306,,33.0318,33.0306,,33.0325,33.0322,5.7952,,6.1267,5.9567,5.8590,,6.1282,5.9393,5.9480,252.562,266.5271,261.6289,255.341,277.8962,261.2850,261.4570,0.1511,,0.8755,0.4844,2.5843,,0.0000,,24.7617,,24.7616,,,,,,,,,,,13.5298,13.5302,0.1627,318.857,97.648,98.723,,,,,,,,,,,,
CalCOFI,2105SH,034,,2105_034d,11-May-2021 23:21:24,11-May-2021 15:21:24,33.14970,-123.22104,080.0 090.0,080.0,090.0,52.000,52.376,,13.5391,,13.5390,,13.5391,33.0390,,33.0402,33.0407,,33.0426,33.0414,5.7885,,6.1197,5.9499,5.8600,,6.1292,5.9403,5.9451,252.265,266.2166,261.3221,255.384,277.5754,261.3290,261.3256,0.1622,,0.9522,0.5273,2.5841,,0.0000,,24.7678,,24.7691,,,,,,,,,,,13.5318,13.5317,0.1661,318.309,97.543,98.750,52,13.281,,,264.56,0.390,0.194,1.71,0.116,0.17,0.47,1.59
CalCOFI,2105SH,034,,2105_034d,11-May-2021 23:21:25,11-May-2021 15:21:25,33.14970,-123.22104,080.0 090.0,080.0,090.0,53.000,53.384,,13.5104,,13.5146,,13.5125,33.0494,,33.0506,33.0439,,33.0458,33.0482,5.7756,,6.1062,5.9368,5.8584,,6.1275,5.9387,5.9378,251.699,265.6249,260.7375,255.310,276.9641,261.2533,260.9954,0.1912,,1.1495,0.6396,2.5840,,0.0000,,24.7816,,24.7765,,,,,,,,,,,13.5031,13.5072,0.1693,317.013,97.275,98.675,,,,,,,,,,,,
CalCOFI,2105SH,034,,2105_034d,11-May-2021 23:21:26,11-May-2021 15:21:26,33.14970,-123.22104,080.0 090.0,080.0,090.0,54.000,54.391,,13.3866,,13.3839,,13.3853,33.0308,,33.0320,33.0310,,33.0329,33.0325,5.7761,,6.1067,5.9373,5.8722,,6.1418,5.9525,5.9449,251.721,265.6479,260.7602,255.907,276.9879,261.8642,261.3122,0.1444,,0.8290,0.4585,2.5839,,0.0000,,24.7922,,24.7929,,,,,,,,,,,13.3792,13.3764,0.1725,316.019,97.027,98.635,,,,,,,,,,,,
CalCOFI,2105SH,034,,2105_034d,11-May-2021 23:21:27,11-May-2021 15:21:27,33.14970,-123.22104,080.0 090.0,080.0,090.0,55.000,55.399,,13.4259,,13.4262,,13.4261,33.0464,,33.0476,33.0443,,33.0462,33.0469,5.7892,,6.1204,5.9506,5.8729,,6.1425,5.9532,5.9519,252.289,266.2417,261.3469,255.937,277.6013,261.8949,261.6209,0.1465,,0.8436,0.4666,2.5837,,0.0000,,24.7964,,24.7947,,,,,,,,,,,13.4183,13.4186,0.1757,315.657,97.334,98.740,,,,,,,,,,,,